GW2646 Weather Reports


time (UTC)temp
C
wind
direction
speed
KPH
gust
KPH
rain 1hr
cm
rain 24hr
cm
rain mn
cm
humidity
%
barometer
mb
20260508211555 13 214 8.0 27.4 0.00 0.00 0.00 64 1020.9
20260508211046 14 126 8.0 22.5 0.00 0.00 0.00 64 1020.9
20260508210547 14 180 9.7 22.5 0.00 0.00 0.00 63 1020.8
20260508210059 14 157 8.0 24.1 0.00 0.00 0.00 63 1020.7
20260508205548 13 162 11.3 24.1 0.00 0.00 0.00 64 1020.7
20260508205045 14 193 8.0 24.1 0.00 0.00 0.00 62 1020.6
20260508204556 14 157 8.0 17.7 0.00 0.00 0.00 63 1020.7
20260508204046 14 78 9.7 22.5 0.00 0.00 0.00 62 1020.6
20260508203545 14 163 9.7 22.5 0.00 0.00 0.00 63 1020.7
20260508203106 14 65 4.8 22.5 0.00 0.00 0.00 62 1020.6
20260508202546 14 153 8.0 22.5 0.00 0.00 0.00 63 1020.7
20260508202047 14 178 6.4 22.5 0.00 0.00 0.00 62 1020.7
20260508201557 14 121 9.7 22.5 0.00 0.00 0.00 60 1020.7
20260508201046 14 184 8.0 25.7 0.00 0.00 0.00 62 1020.6
20260508200546 14 248 8.0 25.7 0.00 0.00 0.00 60 1020.6
20260508200052 14 208 3.2 22.5 0.00 0.00 0.00 59 1020.5
20260508195549 13 195 9.7 22.5 0.00 0.00 0.00 61 1020.5
20260508195045 13 161 6.4 25.7 0.00 0.00 0.00 64 1020.4
20260508194551 13 248 4.8 25.7 0.00 0.00 0.00 65 1020.4
20260508194048 13 159 11.3 22.5 0.00 0.00 0.00 66 1020.4
20260508193547 13 230 8.0 20.9 0.00 0.00 0.00 66 1020.3
20260508193054 13 217 9.7 25.7 0.00 0.00 0.00 66 1020.3
20260508192549 13 173 12.9 25.7 0.00 0.00 0.00 64 1020.3
20260508192047 13 175 11.3 24.1 0.00 0.00 0.00 63 1020.3
20260508191551 14 175 6.4 22.5 0.00 0.00 0.00 63 1020.2
20260508191051 13 206 8.0 22.5 0.00 0.00 0.00 65 1020.2
20260508190547 13 227 9.7 19.3 0.00 0.00 0.00 67 1020.4
20260508190054 13 202 9.7 17.7 0.00 0.00 0.00 67 1020.3
20260508185549 13 140 8.0 16.1 0.00 0.00 0.00 68 1020.3
20260508185046 13 248 6.4 17.7 0.00 0.00 0.00 69 1020.2
20260508184554 12 227 8.0 22.5 0.00 0.00 0.00 68 1020.2
20260508184045 12 183 6.4 22.5 0.00 0.00 0.00 70 1020.2
20260508183548 12 194 8.0 22.5 0.00 0.00 0.00 69 1020.3
20260508183052 12 161 9.7 22.5 0.00 0.00 0.00 69 1020.2
20260508182548 13 216 9.7 20.9 0.00 0.00 0.00 69 1020.2
20260508182047 13 142 8.0 20.9 0.00 0.00 0.00 68 1020.2
20260508181557 12 205 6.4 19.3 0.00 0.00 0.00 71 1020.0
20260508181047 12 177 6.4 16.1 0.00 0.00 0.00 72 1020.0
20260508180547 12 194 4.8 17.7 0.00 0.00 0.00 76 1020.0
20260508180052 12 180 4.8 24.1 0.00 0.00 0.00 77 1020.0
20260508175547 12 214 8.0 25.7 0.00 0.00 0.00 76 1019.9
20260508175047 12 192 11.3 25.7 0.00 0.00 0.00 75 1019.9
20260508174600 12 0 4.8 17.7 0.00 0.00 0.00 77 1019.8
20260508174046 12 155 4.8 17.7 0.00 0.00 0.00 79 1019.7
20260508173549 12 187 3.2 27.4 0.00 0.00 0.00 80 1019.6
20260508173056 11 120 8.0 27.4 0.00 0.00 0.00 80 1019.4
20260508172546 11 173 6.4 25.7 0.00 0.00 0.00 81 1019.4
20260508172046 11 157 8.0 19.3 0.00 0.00 0.00 81 1019.4
20260508171552 11 192 9.7 17.7 0.00 0.00 0.00 81 1019.3
20260508171046 11 171 8.0 16.1 0.00 0.00 0.00 81 1019.1
20260508170545 11 171 4.8 12.9 0.00 0.00 0.00 83 1019.1
20260508170052 11 184 1.6 12.9 0.00 0.00 0.00 85 1018.9
20260508165545 11 0 3.2 16.1 0.00 0.00 0.00 84 1018.9
20260508165045 11 167 6.4 20.9 0.00 0.00 0.00 84 1019.0
20260508164556 11 167 6.4 20.9 0.00 0.00 0.00 84 1019.0
20260508164047 10 159 6.4 12.9 0.00 0.00 0.00 85 1018.9
20260508163548 10 169 4.8 17.7 0.00 0.00 0.00 86 1018.8
20260508163050 10 142 6.4 19.3 0.00 0.00 0.00 87 1018.8
20260508162545 10 219 6.4 19.3 0.00 0.00 0.00 88 1018.9
20260508162047 10 183 4.8 19.3 0.00 0.00 0.00 89 1018.9
20260508161555 10 137 3.2 12.9 0.00 0.00 0.00 89 1018.9
20260508161050 10 165 3.2 12.9 0.00 0.00 0.00 90 1018.9
20260508160544 10 173 6.4 12.9 0.00 0.00 0.00 90 1019.0
20260508160048 10 163 4.8 12.9 0.00 0.00 0.00 90 1019.0
20260508155546 10 114 1.6 14.5 0.00 0.00 0.00 90 1019.1
20260508155046 10 157 3.2 14.5 0.00 0.00 0.00 91 1018.9
20260508154607 10 156 6.4 14.5 0.00 0.00 0.00 91 1018.9
20260508154043 10 116 4.8 12.9 0.00 0.00 0.00 91 1018.8
20260508153546 10 162 4.8 12.9 0.00 0.00 0.00 91 1018.9
20260508153053 10 186 4.8 14.5 0.00 0.00 0.00 91 1018.8
20260508152546 10 167 3.2 14.5 0.00 0.00 0.00 92 1018.8
20260508152047 10 153 4.8 19.3 0.00 0.00 0.00 92 1018.7
20260508151553 10 168 6.4 19.3 0.00 0.00 0.00 92 1018.6
20260508151043 10 164 4.8 12.9 0.00 0.00 0.00 93 1018.5
20260508150545 10 150 4.8 12.9 0.00 0.00 0.00 93 1018.5
20260508145547 10 0 4.8 11.3 0.00 0.00 0.00 95 1018.4
20260508145046 9 182 1.6 9.7 0.00 0.00 0.00 95 1018.3
20260508144554 9 169 1.6 12.9 0.00 0.00 0.00 96 1018.1
20260508144047 9 155 1.6 12.9 0.00 0.00 0.00 96 1018.1
20260508143548 9 0 1.6 6.4 0.00 0.00 0.00 96 1018.1
20260508143119 8 179 0.0 3.2 0.00 0.00 0.00 96 1018.0
20260508142546 8 0 0.0 1.6 0.00 0.00 0.00 96 1017.9
20260508142047 8 0 0.0 3.2 0.00 0.00 0.00 97 1017.8
20260508141552 8 0 0.0 3.2 0.00 0.00 0.00 97 1017.7
20260508141045 8 179 0.0 0.0 0.00 0.00 0.00 96 1017.6
20260508140545 8 0 0.0 0.0 0.00 0.00 0.00 96 1017.6
20260508140106 8 0 0.0 0.0 0.00 0.00 0.00 96 1017.5
20260508135544 8 0 0.0 0.0 0.00 0.00 0.00 96 1017.5
20260508135046 8 0 0.0 0.0 0.00 0.00 0.00 96 1017.4
20260508134556 8 0 0.0 0.0 0.00 0.00 0.00 96 1017.3
20260508134045 8 0 0.0 0.0 0.00 0.00 0.00 96 1017.4
20260508133547 8 0 0.0 0.0 0.00 0.00 0.00 96 1017.3
20260508133106 8 0 0.0 0.0 0.00 0.00 0.00 96 1017.4
20260508132549 8 0 0.0 0.0 0.00 0.00 0.00 96 1017.3
20260508132047 8 0 0.0 0.0 0.00 0.00 0.00 96 1017.2
20260508131600 8 0 0.0 0.0 0.00 0.00 0.00 96 1017.1
20260508131047 8 0 0.0 0.0 0.00 0.00 0.00 96 1017.1
20260508130547 8 0 0.0 0.0 0.00 0.00 0.00 96 1017.1
20260508130059 8 0 0.0 0.0 0.00 0.00 0.00 96 1017.0
20260508125548 8 0 0.0 0.0 0.00 0.00 0.00 96 1017.1
20260508125046 8 0 0.0 0.0 0.00 0.00 0.00 96 1017.0
20260508124553 8 0 0.0 0.0 0.00 0.00 0.00 96 1016.8
20260508124048 8 0 0.0 0.0 0.00 0.00 0.00 96 1016.8
20260508123547 8 0 0.0 0.0 0.00 0.00 0.00 96 1016.7
20260508123055 8 0 0.0 0.0 0.00 0.00 0.00 96 1016.6
20260508122547 8 0 0.0 0.0 0.00 0.00 0.00 96 1016.6
20260508122052 8 0 0.0 1.6 0.00 0.00 0.00 96 1016.5
20260508121556 8 0 0.0 1.6 0.00 0.00 0.00 96 1016.4
20260508121047 8 0 0.0 0.0 0.00 0.00 0.00 96 1016.5
20260508120545 8 0 0.0 0.0 0.00 0.00 0.00 96 1016.4
20260508120052 8 0 0.0 0.0 0.00 0.00 0.00 96 1016.3
20260508115547 8 0 0.0 0.0 0.00 0.00 0.00 96 1016.4
20260508115046 8 0 0.0 0.0 0.00 0.00 0.00 96 1016.4
20260508114554 8 0 0.0 0.0 0.00 0.00 0.00 96 1016.4
20260508114047 8 0 0.0 0.0 0.00 0.00 0.00 96 1016.4
20260508113549 8 0 0.0 0.0 0.00 0.00 0.00 97 1016.4
20260508113057 8 0 0.0 0.0 0.00 0.00 0.00 96 1016.3
20260508112546 7 0 0.0 0.0 0.00 0.00 0.00 96 1016.2
20260508112046 7 0 0.0 0.0 0.00 0.00 0.00 96 1016.1
20260508111605 7 0 0.0 0.0 0.00 0.00 0.00 96 1016.1
20260508111046 7 0 0.0 0.0 0.00 0.00 0.00 96 1016.2
20260508110544 7 0 0.0 0.0 0.00 0.00 0.00 96 1016.3
20260508105545 7 0 0.0 0.0 0.00 0.03 0.00 95 1016.2
20260508105048 7 0 0.0 3.2 0.00 0.03 0.00 96 1016.3
20260508104551 7 0 0.0 3.2 0.00 0.03 0.00 95 1016.2
20260508104045 7 0 0.0 1.6 0.00 0.03 0.00 95 1016.1
20260508103545 7 0 0.0 0.0 0.00 0.03 0.00 95 1016.2
20260508103053 7 0 0.0 0.0 0.00 0.03 0.00 95 1016.1
20260508102547 7 0 0.0 0.0 0.00 0.03 0.00 95 1016.0
20260508102047 7 0 0.0 0.0 0.00 0.03 0.00 95 1016.1
20260508101550 7 0 0.0 1.6 0.00 0.03 0.00 95 1016.0
20260508101045 7 0 0.0 1.6 0.00 0.03 0.00 95 1016.0
20260508100546 7 0 0.0 0.0 0.00 0.03 0.00 95 1016.1
20260508100055 7 0 0.0 0.0 0.00 0.03 0.00 95 1015.9
20260508095547 7 0 0.0 3.2 0.00 0.03 0.00 95 1015.9
20260508095046 7 0 0.0 3.2 0.00 0.03 0.00 95 1016.0
20260508094553 7 0 0.0 3.2 0.00 0.03 0.00 95 1015.9
20260508094045 7 0 0.0 1.6 0.00 0.03 0.00 95 1015.9
20260508093549 7 0 0.0 0.0 0.00 0.03 0.00 95 1015.8
20260508093050 7 0 0.0 0.0 0.00 0.03 0.00 95 1015.8
20260508092546 7 0 0.0 1.6 0.00 0.03 0.00 95 1015.8
20260508092045 7 0 0.0 3.2 0.00 0.03 0.00 95 1015.9
20260508091606 7 0 0.0 3.2 0.00 0.03 0.00 95 1015.9
20260508091047 7 179 0.0 0.0 0.00 0.03 0.00 95 1015.9
20260508090547 7 0 0.0 0.0 0.00 0.03 0.00 95 1016.0
20260508090055 8 0 0.0 0.0 0.00 0.03 0.00 95 1016.0
20260508085546 8 0 0.0 0.0 0.00 0.03 0.00 95 1016.0
20260508085047 8 0 0.0 0.0 0.00 0.03 0.00 95 1016.1
20260508084558 8 0 0.0 0.0 0.00 0.03 0.00 95 1016.1
20260508084045 8 0 0.0 0.0 0.00 0.03 0.00 94 1016.1
20260508083546 8 0 0.0 0.0 0.00 0.03 0.00 95 1016.0
20260508083103 8 0 0.0 0.0 0.00 0.03 0.00 94 1016.1
20260508082547 8 0 0.0 0.0 0.00 0.03 0.00 94 1016.1
20260508082046 8 0 0.0 0.0 0.00 0.03 0.00 94 1016.2
20260508081555 8 0 0.0 0.0 0.00 0.03 0.00 94 1016.2
20260508081045 8 0 0.0 0.0 0.00 0.03 0.00 94 1016.3
20260508080548 8 0 0.0 0.0 0.00 0.03 0.00 94 1016.4
20260508080106 8 0 0.0 0.0 0.00 0.03 0.00 94 1016.4
20260508075547 8 0 0.0 0.0 0.00 0.08 0.00 94 1016.3
20260508075048 8 0 0.0 0.0 0.00 0.08 0.00 94 1016.4
20260508074603 8 0 0.0 0.0 0.00 0.08 0.00 94 1016.4
20260508074047 8 0 0.0 0.0 0.00 0.08 0.00 94 1016.4
20260508073550 8 0 0.0 0.0 0.00 0.08 0.00 94 1016.4
20260508073058 8 0 0.0 1.6 0.00 0.08 0.00 94 1016.4
20260508072546 8 0 0.0 1.6 0.00 0.08 0.00 94 1016.5
20260508072044 8 0 0.0 0.0 0.00 0.08 0.00 93 1016.5
20260508071553 8 0 0.0 0.0 0.00 0.08 0.00 93 1016.5
20260508071046 8 0 0.0 0.0 0.00 0.08 0.00 93 1016.5
20260508070547 8 0 0.0 0.0 0.00 0.08 0.00 93 1016.4
20260508070054 8 0 0.0 0.0 0.00 0.08 0.00 93 1016.5
20260508065546 8 0 0.0 0.0 0.00 0.08 0.08 93 1016.5
20260508065045 8 0 0.0 0.0 0.00 0.08 0.08 93 1016.5
20260508064557 8 0 0.0 0.0 0.00 0.08 0.08 93 1016.5
20260508064048 8 0 0.0 1.6 0.00 0.08 0.08 93 1016.5
20260508063547 8 0 0.0 1.6 0.00 0.08 0.08 92 1016.6
20260508063054 9 0 0.0 1.6 0.00 0.08 0.08 92 1016.6
20260508062546 9 0 0.0 1.6 0.00 0.08 0.08 93 1016.6
20260508062047 9 0 0.0 3.2 0.00 0.08 0.08 92 1016.6
20260508061551 9 179 0.0 3.2 0.00 0.08 0.08 92 1016.5
20260508061048 9 0 0.0 1.6 0.00 0.08 0.08 92 1016.6
20260508060547 9 0 0.0 0.0 0.00 0.08 0.08 92 1016.6
20260508060051 9 0 0.0 0.0 0.00 0.08 0.08 92 1016.6
20260508055546 9 0 0.0 1.6 0.00 0.08 0.08 92 1016.5
20260508055047 9 0 0.0 1.6 0.00 0.08 0.08 92 1016.5
20260508054553 9 0 0.0 0.0 0.00 0.08 0.08 91 1016.5
20260508054047 9 0 0.0 0.0 0.00 0.08 0.08 91 1016.6
20260508053547 9 0 0.0 0.0 0.00 0.08 0.08 91 1016.5
20260508053055 9 0 0.0 1.6 0.00 0.08 0.08 91 1016.5
20260508052546 10 0 0.0 1.6 0.00 0.08 0.08 91 1016.6
20260508052045 10 0 0.0 0.0 0.00 0.08 0.08 90 1016.5
20260508051608 10 0 0.0 0.0 0.00 0.08 0.08 90 1016.5
20260508051047 10 0 0.0 1.6 0.00 0.08 0.08 90 1016.5
20260508050546 10 0 0.0 1.6 0.00 0.08 0.08 90 1016.5
20260508050103 10 0 0.0 1.6 0.00 0.08 0.08 90 1016.7
20260508045544 10 0 0.0 0.0 0.00 0.08 0.08 89 1016.7
20260508045045 10 0 0.0 0.0 0.00 0.08 0.08 89 1016.7
20260508044556 10 0 0.0 0.0 0.00 0.08 0.08 89 1016.7
20260508044047 10 0 0.0 0.0 0.00 0.08 0.08 89 1016.8
20260508043545 11 0 0.0 0.0 0.00 0.08 0.08 88 1016.8
20260508043051 11 0 0.0 1.6 0.00 0.08 0.08 88 1016.8
20260508042547 11 0 0.0 1.6 0.00 0.08 0.08 87 1016.9
20260508042046 11 0 0.0 1.6 0.00 0.08 0.08 87 1016.8
20260508041555 11 0 0.0 0.0 0.00 0.08 0.08 86 1016.9
20260508041047 11 0 0.0 1.6 0.00 0.08 0.08 86 1016.8
20260508040546 11 0 0.0 1.6 0.00 0.08 0.08 86 1016.7
20260508040100 12 0 0.0 0.0 0.00 0.08 0.08 85 1016.7
20260508035550 12 0 0.0 0.0 0.00 0.08 0.08 84 1016.8
20260508035047 12 0 0.0 0.0 0.00 0.08 0.08 83 1016.8
20260508034554 12 0 0.0 0.0 0.00 0.08 0.08 82 1016.7
20260508034047 12 0 0.0 0.0 0.00 0.08 0.08 81 1016.8
20260508033548 13 0 0.0 0.0 0.00 0.08 0.08 80 1016.8
20260508033052 13 0 0.0 0.0 0.00 0.08 0.08 79 1016.7
20260508032548 13 0 0.0 0.0 0.00 0.08 0.08 78 1016.8
20260508032046 14 0 0.0 0.0 0.00 0.08 0.08 77 1016.8
20260508031551 15 0 0.0 0.0 0.00 0.08 0.08 75 1016.7
20260508031047 15 0 0.0 1.6 0.00 0.08 0.08 73 1016.9
20260508030547 15 0 0.0 3.2 0.00 0.08 0.08 72 1016.8
20260508030054 16 0 0.0 4.8 0.00 0.08 0.08 69 1016.8
20260508025545 16 0 0.0 4.8 0.00 0.08 0.08 69 1016.8
20260508025046 16 179 0.0 4.8 0.00 0.08 0.08 69 1016.9
20260508024552 16 0 0.0 4.8 0.00 0.08 0.08 69 1016.8
20260508024047 16 179 0.0 4.8 0.00 0.08 0.08 69 1016.8
20260508023545 16 179 0.0 4.8 0.00 0.08 0.08 69 1017.0
20260508023053 16 0 0.0 6.4 0.00 0.08 0.08 68 1016.9
20260508022551 16 0 0.0 6.4 0.00 0.08 0.08 68 1016.9
20260508022048 16 179 1.6 6.4 0.00 0.08 0.08 68 1017.1
20260508021554 16 200 1.6 6.4 0.00 0.08 0.08 68 1017.0
20260508021043 16 205 1.6 6.4 0.00 0.08 0.08 66 1017.1
20260508020547 16 198 1.6 6.4 0.00 0.08 0.08 66 1017.1
20260508020056 17 0 0.0 8.0 0.00 0.08 0.08 66 1017.1
20260508015545 17 153 0.0 8.0 0.00 0.08 0.08 66 1017.0
20260508015045 16 0 3.2 8.0 0.00 0.08 0.08 67 1017.1
20260508014552 16 0 3.2 8.0 0.00 0.08 0.08 67 1017.2
20260508014047 16 164 1.6 6.4 0.00 0.08 0.08 68 1017.1
20260508013546 16 0 1.6 8.0 0.00 0.08 0.08 68 1017.2
20260508013050 16 0 0.0 9.7 0.00 0.08 0.08 68 1017.2
20260508012547 16 200 4.8 9.7 0.00 0.08 0.08 68 1017.2
20260508012047 16 0 3.2 9.7 0.00 0.08 0.08 69 1017.3
20260508011549 16 0 1.6 12.9 0.00 0.08 0.08 70 1017.4
20260508011046 16 196 4.8 12.9 0.00 0.08 0.08 70 1017.4
20260508010546 16 216 3.2 11.3 0.00 0.08 0.08 69 1017.3
20260508010051 16 216 3.2 9.7 0.00 0.08 0.08 69 1017.5
20260508005546 16 0 1.6 9.7 0.00 0.08 0.08 69 1017.5
20260508005046 16 240 3.2 9.7 0.00 0.08 0.08 69 1017.5
20260508004555 16 37 0.0 6.4 0.00 0.08 0.08 69 1017.5
20260508004046 16 17 1.6 8.0 0.00 0.08 0.08 67 1017.6
20260508003549 16 313 0.0 9.7 0.00 0.08 0.08 68 1017.6
20260508003053 16 180 3.2 9.7 0.00 0.08 0.08 69 1017.5
20260508002545 16 0 4.8 9.7 0.00 0.08 0.08 69 1017.5
20260508002048 16 37 1.6 6.4 0.00 0.08 0.08 68 1017.4
20260508001549 16 0 0.0 3.2 0.00 0.08 0.08 68 1017.5
20260508001047 17 229 0.0 3.2 0.00 0.08 0.08 67 1017.5
20260508000543 17 229 0.0 3.2 0.00 0.08 0.08 65 1017.4
20260508000055 17 0 0.0 8.0 0.00 0.08 0.08 68 1017.4
20260507235550 17 0 0.0 8.0 0.00 0.08 0.08 67 1017.5
20260507235046 17 196 0.0 6.4 0.00 0.08 0.08 67 1017.5
20260507234555 17 219 0.0 6.4 0.00 0.08 0.08 66 1017.5
20260507234045 17 150 0.0 8.0 0.00 0.08 0.08 68 1017.5
20260507233545 17 0 0.0 8.0 0.00 0.08 0.08 68 1017.5
20260507233112 17 149 0.0 11.3 0.00 0.08 0.08 69 1017.6
20260507232547 16 0 1.6 11.3 0.00 0.08 0.08 69 1017.6
20260507232049 16 136 1.6 8.0 0.00 0.08 0.08 68 1017.7
20260507231552 16 171 1.6 9.7 0.00 0.08 0.08 68 1017.7
20260507231047 16 0 0.0 9.7 0.00 0.08 0.08 69 1017.7
20260507230545 17 192 1.6 9.7 0.00 0.08 0.08 68 1017.7
20260507230053 16 0 0.0 9.7 0.00 0.08 0.08 71 1017.9
20260507225547 16 179 1.6 9.7 0.00 0.08 0.08 71 1017.9
20260507225047 16 0 0.0 4.8 0.00 0.08 0.08 72 1018.0
20260507224553 15 350 1.6 4.8 0.00 0.08 0.08 75 1018.0
20260507224047 15 0 0.0 4.8 0.00 0.08 0.08 73 1018.0
20260507223549 15 335 0.0 4.8 0.00 0.08 0.08 75 1018.1
20260507223108 15 317 0.0 4.8 0.00 0.08 0.08 74 1018.2
20260507222545 15 0 0.0 4.8 0.00 0.08 0.08 72 1018.3
20260507222045 15 0 0.0 3.2 0.00 0.08 0.08 76 1018.4
20260507221550 15 317 0.0 3.2 0.00 0.08 0.08 73 1018.5
20260507221046 15 0 0.0 3.2 0.00 0.08 0.08 74 1018.6
20260507220545 15 0 0.0 4.8 0.00 0.08 0.08 75 1018.6
20260507220055 15 0 0.0 4.8 0.00 0.08 0.08 74 1018.7
20260507215546 15 0 0.0 4.8 0.00 0.08 0.08 74 1018.7
20260507215045 15 0 0.0 3.2 0.00 0.08 0.08 72 1018.8
20260507214555 15 317 0.0 3.2 0.00 0.08 0.08 76 1018.8
20260507214049 14 0 0.0 4.8 0.00 0.08 0.08 77 1018.9
20260507213551 14 0 0.0 4.8 0.00 0.08 0.08 76 1019.0
20260507213050 14 0 0.0 4.8 0.00 0.08 0.08 76 1019.1
20260507212548 13 284 0.0 4.8 0.00 0.08 0.08 77 1019.1
20260507212047 13 284 0.0 8.0 0.00 0.08 0.08 77 1019.1